This is the latest recevied weather packets stored in our database for station/object N4AR. If no packets are shown the sender has not sent any weather packets the latest 10 day(s).
| Time | Temp. | Humidity | Pressure | Rain* | Wind** | Luminosity | Snow |
|---|---|---|---|---|---|---|---|
| 1777758176 | 14.44° C | 51% | 1011.7 hPa | 0 mm | - | 83 W/m² | - |
| 1777757874 | 14.44° C | 50% | 1011.7 hPa | 0 mm | - | 101 W/m² | - |
| 1777757571 | 14.44° C | 49% | 1011.8 hPa | 0 mm | - | 93 W/m² | - |
| 1777757270 | 14.44° C | 49% | 1011.8 hPa | 0 mm | - | 90 W/m² | - |
| 1777756968 | 14.44° C | 51% | 1011.6 hPa | 0 mm | - | 86 W/m² | - |
| 1777756663 | 14.44° C | 48% | 1011.8 hPa | 0 mm | - | 92 W/m² | - |
| 1777756360 | 14.44° C | 48% | 1011.5 hPa | 0 mm | - | 93 W/m² | - |
| 1777756057 | 14.44° C | 48% | 1011.7 hPa | 0 mm | - | 93 W/m² | - |
| 1777755755 | 14.44° C | 47% | 1011.7 hPa | 0 mm | - | 93 W/m² | - |
| 1777755452 | 15° C | 48% | 1011.4 hPa | 0 mm | - | 106 W/m² | - |
| 1777755148 | 15° C | 48% | 1011.7 hPa | 0 mm | - | 105 W/m² | - |
| 1777754845 | 14.44° C | 48% | 1011.5 hPa | 0 mm | - | 119 W/m² | - |
| 1777754543 | 14.44° C | 49% | 1011.6 hPa | 0 mm | - | 122 W/m² | - |
| 1777754240 | 14.44° C | 49% | 1011.5 hPa | 0 mm | - | 129 W/m² | - |
| 1777753933 | 15° C | 47% | 1011.7 hPa | 0 mm | - | 145 W/m² | - |
| 1777753632 | 15° C | 48% | 1011.7 hPa | 0 mm | - | 178 W/m² | - |
| 1777753331 | 15° C | 50% | 1011.5 hPa | 0 mm | - | 172 W/m² | - |
| 1777753028 | 15° C | 49% | 1011.5 hPa | 0 mm | - | 161 W/m² | - |
| 1777752724 | 15° C | 49% | 1011.7 hPa | 0 mm | - | 189 W/m² | - |
| 1777752420 | 15° C | 49% | 1011.7 hPa | 0 mm | - | 181 W/m² | - |
| 1777752116 | 15.56° C | 50% | 1011.5 hPa | 0 mm | - | 210 W/m² | - |
| 1777751815 | 15° C | 48% | 1011.6 hPa | 0 mm | - | 224 W/m² | - |
| 1777751511 | 15.56° C | 50% | 1011.6 hPa | 0 mm | - | 334 W/m² | - |
| 1777751208 | 15° C | 48% | 1011.8 hPa | 0 mm | - | 217 W/m² | - |
| 1777750904 | 15° C | 52% | 1012 hPa | 0 mm | - | 245 W/m² | - |
* Rain latest hour (hover to see other rain measurements)
** Current wind speed in m/s (hover to see current wind gust speed)